Flag for Jersey Weather past 2 weeks in Saint Helier, Jersey

Now
54 °F

Drizzle. Fog.


Feels Like: 50 °F
Forecast: 52 / 61 °F
Wind: 12 mph from West

Location: Jersey Airport

Current Time: May 22, 2015 at 12:55:43 PM

Latest Report: May 22, 2015 at 12:20 PM


Visibility: 0 mi

Pressure: 30.36 "Hg

Humidity: 94%

Dew point: 52 °F

Location of Saint HelierLocation

Historic Weather in Saint Helier — Graph

°F

Saint Helier temperature yesterday

Maximum temperature yesterday: 57 °F (at 1:20 PM)
Minimum temperature yesterday: 46 °F (at 3:50 AM)
Average temperature yesterday: 53 °F

Past Weeks' High & Low Weather Summary

 TemperatureHumidityPressure
High64 °F (May 10, 5:20 PM)100% (May 9, 6:50 PM)30.42 "Hg (May 9, 6:50 PM)
Low45 °F (May 13, 12:50 AM)59% (May 13, 12:50 PM)29.80 "Hg (May 14, 6:50 AM)
Average54 °F83%30.12 "Hg
* Reported May 7 11:20 AM — May 22 11:50 AM, Saint Helier, Weather by CustomWeather, © 2015

Note: Actual official high and low records may vary slightly from our data, if they occured in-between our weather recording intervals... More about our weather records

Advertising

Saint Helier weather history for previous 24 hours

 ConditionsComfort  
Time TempWeatherWind HumidityBarometerVisibility
11:50 AM
Fri, May 22
54 °FCool.12 mph94%30.36 "Hg1 mi
11:20 AM52 °FDrizzle. Fog.9 mph100%30.39 "Hg1 mi
10:50 AM54 °FDrizzle. Fog.12 mph94%30.39 "Hg2 mi
10:20 AM54 °FFog.10 mph94%30.39 "Hg3 mi
9:50 AM54 °FPartly sunny.9 mph88%30.39 "HgN/A
9:20 AM54 °FPartly sunny.10 mph88%30.39 "HgN/A
8:50 AM54 °FPartly sunny.8 mph77%30.39 "HgN/A
8:20 AM54 °FPartly sunny.9 mph77%30.39 "HgN/A
7:50 AM52 °FScattered clouds.10 mph82%30.39 "HgN/A
7:20 AM52 °FPartly sunny.10 mph82%30.39 "HgN/A
6:50 AM50 °FPartly sunny.9 mph82%30.39 "HgN/A
6:20 AM50 °FPartly sunny.9 mph88%30.39 "HgN/A
5:50 AM50 °FPassing clouds.8 mph88%30.39 "HgN/A
5:20 AM50 °FPassing clouds.12 mph88%30.39 "HgN/A
4:50 AM50 °FPassing clouds.9 mph88%30.39 "HgN/A
4:20 AM50 °FPassing clouds.10 mph88%30.39 "HgN/A
3:50 AM50 °FPassing clouds.8 mph88%30.39 "HgN/A
11:50 PM
Thu, May 21
50 °FPassing clouds.13 mph88%30.42 "HgN/A
9:20 PM50 °FPassing clouds.12 mph94%30.42 "HgN/A
8:50 PM50 °FPassing clouds.14 mph94%30.42 "HgN/A
8:20 PM52 °FScattered clouds.15 mph88%30.42 "HgN/A
7:50 PM52 °FScattered clouds.13 mph88%30.42 "HgN/A
7:20 PM54 °FScattered clouds.14 mph82%30.42 "HgN/A
6:50 PM54 °FPartly sunny.12 mph82%30.42 "HgN/A
6:20 PM54 °FPartly sunny.13 mph82%30.42 "HgN/A
5:50 PM54 °FPartly sunny.16 mph77%30.42 "HgN/A
5:20 PM55 °FScattered clouds.14 mph77%30.42 "HgN/A
4:50 PM55 °FScattered clouds.15 mph77%30.39 "HgN/A
4:20 PM57 °FPassing clouds.14 mph72%30.39 "HgN/A
3:50 PM57 °FPassing clouds.17 mph67%30.39 "HgN/A
3:20 PM55 °FPassing clouds.10 mph67%30.42 "HgN/A
2:50 PM57 °FPassing clouds.15 mph67%30.42 "HgN/A
2:20 PM57 °FPassing clouds.15 mph67%30.42 "HgN/A
1:50 PM55 °FPassing clouds.14 mph67%30.42 "HgN/A
1:20 PM57 °FPassing clouds.14 mph63%30.39 "HgN/A
12:50 PM55 °FPassing clouds.14 mph67%30.42 "HgN/A
12:20 PM55 °FPassing clouds.17 mph67%30.42 "HgN/A
Weather by CustomWeather, © 2015

See weather overviewHow to use our weather pages